Location: Helion Bumpstead
(52.0500°N, 0.4000°E)
Time: 21:17:46
(UTC+00:00)

COSMO-SKYMED 1 - Pass Details

Date: 15 November 2025
Orbit: 579 x 581 km, 97.9° (Epoch: 14 December)

Event Time Altitude Azimuth Distance (km) Brightness Sun altitude
Rises 05:31:41 0° 175° (S) 2,793 6.1 -16.2°
Reaches altitude 10° 05:33:52 10° 179° (S) 1,898 5.2 -15.9°
Maximum altitude 05:37:55 57° 259° (WSW) 693 2.5 -15.3°
Drops below altitude 10° 05:42:00 10° 339° (NNW) 1,913 4.8 -14.7°
Enters shadow 05:42:51 - 341° (NNW) 2,257 5.1 -14.6°
